Weather History for Rock Hill, SC

Change the Weather History Date:

Sunday, January 6, 2013

  Actual Average Record
Temperature  
Mean Temperature 44 °F -  
Max Temperature 51 °F 50 °F 73 °F (1950)
Min Temperature 36 °F 32 °F 12 °F (2014)
Degree Days  
Heating Degree Days 22    
Moisture  
Dew Point 36 °F    
Average Humidity 74    
Maximum Humidity 97    
Minimum Humidity 63    
Precipitation  
Precipitation 0.01 in - - ()
Sea Level Pressure  
Sea Level Pressure 30.16 in    
Wind  
Wind Speed 5 mph (SW)    
Max Wind Speed 12 mph    
Max Gust Speed -    
Visibility 10 miles    
Events Rain    
Averages and records for this station are not official NWS values.
T = Trace of Precipitation, MM = Missing Value Source: NWS Daily Summary

Daily Weather History Graph

Daily Weather History Graph

Search for Another Location

Airport:

Trip Planner

Search our weather history database for the weather conditions in past years. The results will help you decide how hot, cold, wet, or windy it might be!

Date:

Astronomy

Jan. 06, 2013 Rise Set
Actual Time 7:32 AM EST 5:27 PM EST
Civil Twilight 7:04 AM EST 5:55 PM EST
Nautical Twilight 6:33 AM EST 6:27 PM EST
Astronomical Twilight 6:02 AM EST 6:57 PM EST
Moon 1:50 AM EST (1/6) 12:50 PM EST (1/6)
Length of Visible Light 10h 50m
Length of Day
9h 55m
Waning Crescent, 33% of the Moon is Illuminated
Jan 6
Waning Crescent
Jan 11
New
Jan 18
First Quarter
Jan 26
Full
Feb 3
Last Quarter

Hourly Weather History & Observations

Time (EST) Temp. Windchill Dew Point Humidity Pressure Visibility Wind Dir Wind Speed Gust Speed Precip Events Conditions
12:54 AM 42.1 °F 39.2 °F 34.0 °F 73% 30.24 in 10.0 mi SW 4.6 mph - 0.00 in Rain Light Rain
1:54 AM 41.0 °F 37.1 °F 35.1 °F 79% 30.24 in 10.0 mi SW 5.8 mph - 0.00 in Rain Light Rain
2:54 AM 42.1 °F 39.2 °F 34.0 °F 73% 30.24 in 10.0 mi WSW 4.6 mph - 0.01 in Rain Light Rain
3:54 AM 42.1 °F 39.2 °F 34.0 °F 73% 30.21 in 10.0 mi WSW 4.6 mph - 0.00 in   Overcast
4:54 AM 42.1 °F 40.2 °F 35.1 °F 76% 30.18 in 10.0 mi WSW 3.5 mph - 0.00 in   Overcast
5:54 AM 42.1 °F 39.2 °F 34.0 °F 73% 30.18 in 10.0 mi SW 4.6 mph - N/A   Overcast
6:54 AM 42.1 °F 39.2 °F 35.1 °F 76% 30.17 in 10.0 mi SSW 4.6 mph - N/A   Overcast
8:54 AM 43.0 °F 40.3 °F 36.0 °F 76% 30.20 in 10.0 mi SSW 4.6 mph - 0.00 in   Overcast
9:54 AM 45.0 °F 40.6 °F 36.0 °F 71% 30.21 in 10.0 mi SW 8.1 mph - 0.00 in   Overcast
10:54 AM 46.9 °F - 36.0 °F 66% 30.19 in 10.0 mi WSW 6.9 mph - 0.00 in   Overcast
11:54 AM 48.0 °F - 37.0 °F 66% 30.15 in 10.0 mi WSW 6.9 mph - N/A   Overcast
12:54 PM 50.0 °F - 39.0 °F 66% 30.12 in 10.0 mi SW 11.5 mph - N/A   Mostly Cloudy
1:54 PM 51.1 °F - 39.0 °F 63% 30.09 in 10.0 mi West 9.2 mph - N/A   Mostly Cloudy
2:54 PM 51.1 °F - 39.9 °F 66% 30.08 in 10.0 mi WSW 6.9 mph - N/A   Clear
3:54 PM 51.1 °F - 39.9 °F 66% 30.07 in 10.0 mi South 5.8 mph - N/A   Scattered Clouds
4:54 PM 50.0 °F - 39.9 °F 68% 30.08 in 10.0 mi SSW 8.1 mph - N/A   Scattered Clouds
5:54 PM 46.0 °F 44.8 °F 39.9 °F 79% 30.10 in 10.0 mi SSW 3.5 mph - N/A   Clear
6:54 PM 41.0 °F - 39.0 °F 93% 30.11 in 10.0 mi Calm Calm - N/A   Clear
7:54 PM 37.0 °F 34.5 °F 36.0 °F 96% 30.13 in 10.0 mi SW 3.5 mph - N/A   Clear
8:54 PM 36.0 °F - 35.1 °F 97% 30.14 in 8.0 mi Calm Calm - N/A   Clear
10:54 PM 42.1 °F 37.1 °F 32.0 °F 67% 30.20 in 10.0 mi North 8.1 mph - N/A   Partly Cloudy
11:54 PM 37.9 °F 34.4 °F 30.0 °F 73% 30.23 in 10.0 mi North 4.6 mph - N/A   Clear